Flag for Madagascar Weather past 2 weeks in Antananarivo, Madagascar

Now
64 °F

Partly sunny.


Feels Like: 64 °F
Forecast: 65 / 76 °F
Wind: No wind

Location: Antananarivo / Ivato

Current Time: Mar 2, 2015 at 7:01:07 AM

Latest Report: Mar 2, 2015 at 6:30 AM


Visibility: N/A

Pressure: 30.04 "Hg

Humidity: 100%

Dew point: 64 °F

Location of AntananarivoLocation

Historic Weather in Antananarivo — Graph

°F

Antananarivo temperature yesterday

Maximum temperature yesterday: 79 °F (at 2:00 PM)
Minimum temperature yesterday: 61 °F (at 5:30 AM)
Average temperature yesterday: 69 °F

Past Weeks' High & Low Weather Summary

 TemperatureHumidityPressure
High84 °F (Feb 18, 2:02 PM)100% (Feb 15, 6:00 AM)30.18 "Hg (Feb 15, 6:00 AM)
Low61 °F (Mar 1, 5:30 AM)66% (Feb 20, 3:00 PM)29.92 "Hg (Feb 25, 3:00 PM)
Average70 °F96%30.06 "Hg
* Reported Feb 15 6:00 AM — Mar 2 6:00 AM, Antananarivo, Weather by CustomWeather, © 2015

Note: Actual official high and low records may vary slightly from our data, if they occured in-between our weather recording intervals... More about our weather records

Advertising

Antananarivo weather history for previous 24 hours

 ConditionsComfort  
Time TempWeatherWind HumidityBarometerVisibility
6:00 AM
Mon, Mar 2
63 °FPartly sunny.5 mph100%30.04 "HgN/A
5:30 AM63 °FPassing clouds.No wind100%30.04 "HgN/A
5:00 AM63 °FPassing clouds.6 mph100%30.01 "HgN/A
4:00 AM64 °FPassing clouds.6 mph100%30.01 "HgN/A
3:00 AM63 °FPassing clouds.7 mph100%30.01 "HgN/A
2:30 AM63 °FPassing clouds.8 mph100%30.01 "HgN/A
2:00 AM63 °FPassing clouds.7 mph100%30.01 "HgN/A
1:00 AM64 °FPassing clouds.7 mph100%30.01 "HgN/A
12:30 AM64 °FPassing clouds.7 mph100%30.04 "HgN/A
12:00 AM64 °FPassing clouds.9 mph100%30.04 "HgN/A
11:30 PM
Sun, Mar 1
64 °FPassing clouds.7 mph100%30.04 "HgN/A
10:30 PM64 °FThundershowers. Passing clouds.7 mph100%30.04 "HgN/A
10:00 PM66 °FThundershowers. Passing clouds.9 mph100%30.04 "HgN/A
9:30 PM66 °FThundershowers. Passing clouds.6 mph100%30.04 "HgN/A
9:00 PM66 °FThundershowers. Passing clouds.5 mph100%30.04 "HgN/A
8:30 PM68 °FThundershowers. Passing clouds.6 mph100%30.04 "HgN/A
8:00 PM68 °FPassing clouds.6 mph100%30.01 "HgN/A
7:30 PM68 °FPartly cloudy.6 mph100%30.01 "HgN/A
7:00 PM70 °FPartly cloudy.7 mph94%30.01 "HgN/A
6:30 PM72 °FPartly cloudy.12 mph94%29.98 "HgN/A
6:00 PM73 °FBroken clouds.12 mph89%29.95 "HgN/A
5:30 PM77 °FScattered clouds.8 mph83%29.95 "HgN/A
5:00 PM77 °FScattered clouds.3 mph79%29.95 "HgN/A
4:30 PM79 °FScattered clouds.3 mph74%29.92 "HgN/A
4:00 PM79 °FScattered clouds.7 mph74%29.95 "HgN/A
3:30 PM79 °FScattered clouds.6 mph79%29.95 "HgN/A
3:00 PM79 °FScattered clouds.6 mph74%29.95 "HgN/A
2:30 PM77 °FScattered clouds.7 mph79%29.95 "HgN/A
2:00 PM79 °FScattered clouds.6 mph74%29.98 "HgN/A
1:30 PM75 °FBroken clouds.5 mph83%29.98 "HgN/A
1:00 PM75 °FBroken clouds.6 mph89%30.01 "HgN/A
12:30 PM73 °FPartly sunny.7 mph89%30.01 "HgN/A
12:00 PM73 °FPartly sunny.7 mph89%30.01 "HgN/A
11:30 AM72 °FPartly sunny.8 mph88%30.04 "HgN/A
11:00 AM72 °FPartly sunny.9 mph88%30.04 "HgN/A
10:30 AM72 °FPartly sunny.10 mph83%30.04 "HgN/A
10:00 AM73 °FPartly sunny.9 mph89%30.04 "HgN/A
9:30 AM70 °FPartly sunny.10 mph94%30.04 "HgN/A
9:00 AM68 °FPartly sunny.12 mph100%30.04 "HgN/A
8:30 AM70 °FBroken clouds.13 mph94%30.04 "HgN/A
8:00 AM68 °FBroken clouds.9 mph94%30.01 "HgN/A
7:30 AM66 °FBroken clouds.7 mph100%30.01 "HgN/A
7:00 AM63 °FPartly sunny.8 mph100%30.01 "HgN/A
Weather by CustomWeather, © 2015

See weather overviewHow to use our weather pages